| time (UTC) | temp F | wind direction | speed MPH | gust MPH | rain 1hr in | rain 24hr in | rain mn in | humidity % | barometer mb |
| 20260509130938 | 59 | 254 | 7.0 | 8.0 | 0.00 | 0.00 | 0.00 | 75 | 1005.3 |
| 20260509130433 | 58 | 169 | 3.0 | 5.0 | 0.00 | 0.00 | 0.00 | 77 | 1005.2 |
| 20260509125930 | 58 | 238 | 6.0 | 7.0 | 0.00 | 0.00 | 0.00 | 78 | 1005.4 |
| 20260509125427 | 57 | 218 | 4.0 | 6.0 | 0.00 | 0.00 | 0.00 | 80 | 1005.4 |
| 20260509124923 | 57 | 231 | 7.0 | 9.0 | 0.00 | 0.00 | 0.00 | 81 | 1005.7 |
| 20260509124420 | 57 | 248 | 4.0 | 5.0 | 0.00 | 0.00 | 0.00 | 81 | 1005.5 |
| 20260509123918 | 56 | 221 | 6.0 | 8.0 | 0.00 | 0.00 | 0.00 | 82 | 1005.6 |
| 20260509123415 | 55 | 254 | 4.0 | 5.0 | 0.00 | 0.00 | 0.00 | 83 | 1005.7 |
| 20260509122910 | 55 | 232 | 3.0 | 5.0 | 0.00 | 0.00 | 0.00 | 84 | 1005.7 |
| 20260509122408 | 55 | 213 | 4.0 | 10.0 | 0.00 | 0.00 | 0.00 | 84 | 1005.7 |
| 20260509121904 | 55 | 213 | 7.0 | 10.0 | 0.00 | 0.00 | 0.00 | 84 | 1005.8 |
| 20260509121401 | 55 | 238 | 4.0 | 5.0 | 0.00 | 0.00 | 0.00 | 84 | 1005.7 |
| 20260509120900 | 55 | 213 | 5.0 | 7.0 | 0.00 | 0.00 | 0.00 | 83 | 1005.7 |
| 20260509120357 | 55 | 221 | 4.0 | 6.0 | 0.00 | 0.00 | 0.00 | 84 | 1005.8 |
| 20260509115855 | 55 | 259 | 5.0 | 7.0 | 0.00 | 0.00 | 0.00 | 85 | 1005.4 |
| 20260509115352 | 55 | 220 | 9.0 | 11.0 | 0.00 | 0.00 | 0.00 | 84 | 1005.5 |
| 20260509114850 | 55 | 220 | 4.0 | 7.0 | 0.00 | 0.00 | 0.00 | 84 | 1005.7 |
| 20260509114348 | 54 | 258 | 3.0 | 5.0 | 0.00 | 0.00 | 0.00 | 84 | 1005.5 |
| 20260509113847 | 54 | 238 | 4.0 | 5.0 | 0.00 | 0.00 | 0.00 | 85 | 1005.5 |
| 20260509113344 | 54 | 32 | 0.0 | 1.0 | 0.00 | 0.00 | 0.00 | 85 | 1005.4 |
| 20260509112840 | 54 | 208 | 5.0 | 6.0 | 0.00 | 0.00 | 0.00 | 85 | 1005.4 |
| 20260509112337 | 54 | 227 | 3.0 | 3.0 | 0.00 | 0.00 | 0.00 | 85 | 1005.4 |
| 20260509111835 | 54 | 174 | 1.0 | 2.0 | 0.00 | 0.00 | 0.00 | 85 | 1005.3 |
| 20260509111331 | 54 | 213 | 4.0 | 7.0 | 0.00 | 0.00 | 0.00 | 86 | 1005.6 |
| 20260509110829 | 54 | 225 | 3.0 | 5.0 | 0.00 | 0.00 | 0.00 | 86 | 1005.3 |
| 20260509110325 | 53 | 13 | 0.0 | 1.0 | 0.00 | 0.00 | 0.00 | 87 | 1005.4 |
| 20260509105823 | 54 | 202 | 3.0 | 5.0 | 0.00 | 0.00 | 0.00 | 87 | 1005.5 |
| 20260509105321 | 53 | 232 | 3.0 | 6.0 | 0.00 | 0.00 | 0.00 | 87 | 1005.6 |
| 20260509104817 | 53 | 215 | 3.0 | 7.0 | 0.00 | 0.00 | 0.00 | 88 | 1005.6 |
| 20260509104314 | 53 | 224 | 3.0 | 3.0 | 0.00 | 0.00 | 0.00 | 88 | 1005.3 |
| 20260509103812 | 53 | 240 | 4.0 | 6.0 | 0.00 | 0.00 | 0.00 | 89 | 1005.5 |
| 20260509103309 | 53 | 224 | 2.0 | 2.0 | 0.00 | 0.00 | 0.00 | 88 | 1005.8 |
| 20260509102808 | 53 | 243 | 3.0 | 6.0 | 0.00 | 0.00 | 0.00 | 88 | 1005.7 |
| 20260509102306 | 53 | 229 | 5.0 | 7.0 | 0.00 | 0.00 | 0.00 | 88 | 1005.8 |
| 20260509101801 | 53 | 32 | 1.0 | 2.0 | 0.00 | 0.00 | 0.00 | 88 | 1005.7 |
| 20260509101257 | 53 | 257 | 2.0 | 2.0 | 0.00 | 0.00 | 0.00 | 88 | 1005.9 |
| 20260509100755 | 53 | 214 | 6.0 | 8.0 | 0.00 | 0.00 | 0.00 | 88 | 1006.0 |
| 20260509100252 | 53 | 13 | 1.0 | 2.0 | 0.00 | 0.00 | 0.00 | 88 | 1005.9 |
| 20260509095748 | 53 | 210 | 5.0 | 6.0 | 0.00 | 0.00 | 0.00 | 88 | 1006.0 |
| 20260509095246 | 53 | 124 | 1.0 | 1.0 | 0.00 | 0.00 | 0.00 | 88 | 1006.2 |
| 20260509094743 | 53 | 1 | 1.0 | 1.0 | 0.00 | 0.00 | 0.00 | 88 | 1006.4 |
| 20260509094239 | 53 | 203 | 3.0 | 5.0 | 0.00 | 0.00 | 0.00 | 88 | 1006.4 |
| 20260509093737 | 53 | 117 | 2.0 | 2.0 | 0.00 | 0.00 | 0.00 | 88 | 1006.5 |
| 20260509093234 | 53 | 235 | 2.0 | 2.0 | 0.00 | 0.00 | 0.00 | 88 | 1006.4 |
| 20260509092733 | 53 | 230 | 2.0 | 2.0 | 0.00 | 0.00 | 0.00 | 88 | 1006.4 |
| 20260509092230 | 53 | 231 | 4.0 | 6.0 | 0.00 | 0.00 | 0.00 | 88 | 1006.2 |
| 20260509091728 | 53 | 22 | 2.0 | 2.0 | 0.00 | 0.00 | 0.00 | 87 | 1006.3 |
| 20260509091224 | 53 | 287 | 1.0 | 2.0 | 0.00 | 0.00 | 0.00 | 87 | 1006.4 |
| 20260509090722 | 53 | 232 | 4.0 | 6.0 | 0.00 | 0.00 | 0.00 | 87 | 1006.6 |
| 20260509090219 | 53 | 164 | 2.0 | 2.0 | 0.00 | 0.00 | 0.00 | 87 | 1006.4 |
| 20260509085717 | 53 | 259 | 1.0 | 2.0 | 0.00 | 0.00 | 0.00 | 87 | 1006.6 |
| 20260509085214 | 53 | 218 | 1.0 | 2.0 | 0.00 | 0.00 | 0.00 | 86 | 1006.5 |
| 20260509084710 | 53 | 39 | 0.0 | 1.0 | 0.00 | 0.00 | 0.00 | 86 | 1006.6 |
| 20260509084207 | 53 | 238 | 0.0 | 1.0 | 0.00 | 0.00 | 0.00 | 86 | 1006.6 |
| 20260509083705 | 53 | 189 | 2.0 | 2.0 | 0.00 | 0.00 | 0.00 | 85 | 1006.6 |
| 20260509083201 | 53 | 26 | 0.0 | 0.0 | 0.00 | 0.00 | 0.00 | 85 | 1006.5 |
| 20260509082658 | 53 | 346 | 1.0 | 1.0 | 0.00 | 0.00 | 0.00 | 85 | 1006.9 |
| 20260509082154 | 53 | 189 | 3.0 | 5.0 | 0.00 | 0.00 | 0.00 | 84 | 1006.9 |
| 20260509081651 | 53 | 37 | 3.0 | 6.0 | 0.00 | 0.00 | 0.00 | 84 | 1007.0 |
| 20260509081149 | 52 | 239 | 2.0 | 5.0 | 0.00 | 0.00 | 0.00 | 84 | 1007.4 |
| 20260509080647 | 52 | 186 | 3.0 | 3.0 | 0.00 | 0.00 | 0.00 | 83 | 1007.4 |
| 20260509080144 | 52 | 277 | 1.0 | 1.0 | 0.00 | 0.00 | 0.00 | 82 | 1007.4 |
| 20260509075643 | 52 | 23 | 1.0 | 1.0 | 0.00 | 0.00 | 0.00 | 82 | 1007.4 |
| 20260509075140 | 52 | 40 | 0.0 | 0.0 | 0.00 | 0.00 | 0.00 | 81 | 1007.4 |
| 20260509074637 | 52 | 240 | 5.0 | 6.0 | 0.00 | 0.00 | 0.00 | 80 | 1007.6 |
| 20260509074133 | 52 | 19 | 0.0 | 0.0 | 0.00 | 0.00 | 0.00 | 79 | 1007.7 |
| 20260509073630 | 52 | 217 | 2.0 | 5.0 | 0.00 | 0.00 | 0.00 | 77 | 1007.5 |
| 20260509073126 | 52 | 211 | 3.0 | 5.0 | 0.00 | 0.00 | 0.00 | 76 | 1007.6 |
| 20260509072623 | 52 | 161 | 2.0 | 2.0 | 0.00 | 0.00 | 0.00 | 75 | 1007.7 |
| 20260509072120 | 52 | 203 | 2.0 | 2.0 | 0.00 | 0.00 | 0.00 | 73 | 1007.8 |
| 20260509071616 | 52 | 228 | 6.0 | 7.0 | 0.00 | 0.00 | 0.00 | 71 | 1007.9 |
| 20260509071114 | 52 | 31 | 0.0 | 1.0 | 0.00 | 0.00 | 0.00 | 69 | 1007.8 |
| 20260509070611 | 52 | 198 | 1.0 | 2.0 | 0.00 | 0.00 | 0.00 | 66 | 1008.1 |
| 20260509070107 | 52 | 193 | 1.0 | 2.0 | 0.00 | 0.00 | 0.00 | 64 | 1007.9 |
| 20260509065603 | 52 | 359 | 1.0 | 1.0 | 0.00 | 0.00 | 0.00 | 62 | 1007.9 |
| 20260509065059 | 52 | 34 | 0.0 | 1.0 | 0.00 | 0.00 | 0.00 | 59 | 1008.1 |
| 20260509064556 | 52 | 287 | 2.0 | 2.0 | 0.00 | 0.00 | 0.00 | 58 | 1007.8 |
| 20260509064054 | 52 | 26 | 1.0 | 1.0 | 0.00 | 0.00 | 0.00 | 55 | 1008.1 |
| 20260509063550 | 52 | 221 | 1.0 | 2.0 | 0.00 | 0.00 | 0.00 | 52 | 1008.2 |
| 20260509063047 | 52 | 11 | 0.0 | 1.0 | 0.00 | 0.00 | 0.00 | 50 | 1008.3 |
| 20260509062544 | 52 | 314 | 1.0 | 1.0 | 0.00 | 0.00 | 0.00 | 49 | 1008.2 |
| 20260509062042 | 52 | 44 | 0.0 | 1.0 | 0.00 | 0.00 | 0.00 | 47 | 1008.4 |
| 20260509061538 | 52 | 32 | 0.0 | 0.0 | 0.00 | 0.00 | 0.00 | 45 | 1008.4 |
| 20260509061036 | 52 | 226 | 2.0 | 2.0 | 0.00 | 0.00 | 0.00 | 44 | 1008.3 |
| 20260509060533 | 52 | 345 | 0.0 | 1.0 | 0.00 | 0.00 | 0.00 | 43 | 1008.5 |
| 20260509060023 | 52 | 31 | 2.0 | 3.0 | 0.00 | 0.00 | 0.00 | 42 | 1008.4 |
| 20260509055518 | 52 | 43 | 0.0 | 0.0 | 0.00 | 0.00 | 0.00 | 41 | 1008.4 |
| 20260509055015 | 52 | 45 | 0.0 | 1.0 | 0.00 | 0.00 | 0.00 | 41 | 1008.5 |
| 20260509054512 | 52 | 55 | 0.0 | 1.0 | 0.00 | 0.00 | 0.00 | 40 | 1008.7 |
| 20260509054010 | 52 | 47 | 0.0 | 1.0 | 0.00 | 0.00 | 0.00 | 41 | 1008.8 |
| 20260509053508 | 52 | 48 | 0.0 | 0.0 | 0.00 | 0.00 | 0.00 | 40 | 1008.7 |
| 20260509053005 | 52 | 237 | 1.0 | 2.0 | 0.00 | 0.00 | 0.00 | 40 | 1008.7 |
| 20260509052502 | 52 | 76 | 0.0 | 0.0 | 0.00 | 0.00 | 0.00 | 40 | 1008.9 |
| 20260509052000 | 52 | 277 | 1.0 | 1.0 | 0.00 | 0.00 | 0.00 | 39 | 1008.8 |
| 20260509051458 | 52 | 53 | 0.0 | 1.0 | 0.00 | 0.00 | 0.00 | 39 | 1008.6 |
| 20260509050954 | 52 | 353 | 0.0 | 1.0 | 0.00 | 0.00 | 0.00 | 39 | 1008.6 |
| 20260509050451 | 52 | 55 | 0.0 | 0.0 | 0.00 | 0.00 | 0.00 | 39 | 1008.8 |
| 20260509045947 | 51 | 55 | 0.0 | 0.0 | 0.00 | 0.00 | 0.00 | 39 | 1008.6 |
| 20260509045445 | 51 | 32 | 0.0 | 0.0 | 0.00 | 0.00 | 0.00 | 39 | 1008.7 |
| 20260509044942 | 51 | 38 | 0.0 | 0.0 | 0.00 | 0.00 | 0.00 | 39 | 1008.6 |
| 20260509044440 | 51 | 43 | 0.0 | 0.0 | 0.00 | 0.00 | 0.00 | 39 | 1008.8 |
| 20260509043937 | 51 | 49 | 0.0 | 0.0 | 0.00 | 0.00 | 0.00 | 39 | 1008.9 |
| 20260509043432 | 51 | 58 | 0.0 | 0.0 | 0.00 | 0.00 | 0.00 | 39 | 1008.7 |
| 20260509042928 | 51 | 48 | 0.0 | 0.0 | 0.00 | 0.00 | 0.00 | 38 | 1008.9 |
| 20260509042426 | 51 | 55 | 1.0 | 1.0 | 0.00 | 0.00 | 0.00 | 38 | 1009.0 |
| 20260509041921 | 51 | 41 | 0.0 | 0.0 | 0.00 | 0.00 | 0.00 | 38 | 1008.8 |
| 20260509041418 | 51 | 60 | 1.0 | 1.0 | 0.00 | 0.00 | 0.00 | 38 | 1009.2 |
| 20260509040916 | 51 | 45 | 0.0 | 0.0 | 0.00 | 0.00 | 0.00 | 38 | 1009.1 |
| 20260509040414 | 51 | 46 | 0.0 | 0.0 | 0.00 | 0.00 | 0.00 | 39 | 1009.0 |
| 20260509035911 | 51 | 45 | 0.0 | 0.0 | 0.00 | 0.00 | 0.00 | 40 | 1009.3 |
| 20260509035408 | 51 | 48 | 0.0 | 0.0 | 0.00 | 0.00 | 0.00 | 39 | 1009.4 |
| 20260509034904 | 51 | 51 | 0.0 | 0.0 | 0.00 | 0.00 | 0.00 | 39 | 1009.3 |
| 20260509034402 | 51 | 46 | 0.0 | 0.0 | 0.00 | 0.00 | 0.00 | 38 | 1009.5 |
| 20260509033859 | 51 | 43 | 0.0 | 0.0 | 0.00 | 0.00 | 0.00 | 38 | 1009.6 |
| 20260509033356 | 51 | 46 | 0.0 | 0.0 | 0.00 | 0.00 | 0.00 | 37 | 1009.4 |
| 20260509032852 | 51 | 64 | 0.0 | 1.0 | 0.00 | 0.00 | 0.00 | 37 | 1009.5 |
| 20260509032350 | 51 | 52 | 0.0 | 0.0 | 0.00 | 0.00 | 0.00 | 37 | 1009.6 |
| 20260509031848 | 51 | 45 | 0.0 | 0.0 | 0.00 | 0.00 | 0.00 | 37 | 1009.6 |
| 20260509031344 | 51 | 50 | 0.0 | 0.0 | 0.00 | 0.00 | 0.00 | 37 | 1009.7 |
| 20260509030842 | 51 | 47 | 0.0 | 0.0 | 0.00 | 0.00 | 0.00 | 37 | 1009.8 |
| 20260509030339 | 51 | 53 | 0.0 | 0.0 | 0.00 | 0.00 | 0.00 | 36 | 1009.8 |
| 20260509025831 | 51 | 46 | 0.0 | 0.0 | 0.00 | 0.00 | 0.00 | 38 | 1009.7 |
| 20260509025326 | 51 | 54 | 0.0 | 0.0 | 0.00 | 0.00 | 0.00 | 37 | 1010.0 |
| 20260509024822 | 51 | 48 | 0.0 | 0.0 | 0.00 | 0.00 | 0.00 | 39 | 1009.9 |
| 20260509024318 | 51 | 47 | 0.0 | 0.0 | 0.00 | 0.00 | 0.00 | 40 | 1010.1 |
| 20260509023816 | 51 | 64 | 0.0 | 1.0 | 0.00 | 0.00 | 0.00 | 39 | 1010.0 |
| 20260509023313 | 51 | 47 | 0.0 | 0.0 | 0.00 | 0.00 | 0.00 | 40 | 1010.1 |
| 20260509022809 | 51 | 47 | 0.0 | 0.0 | 0.00 | 0.00 | 0.00 | 39 | 1010.1 |
| 20260509022307 | 51 | 46 | 0.0 | 0.0 | 0.00 | 0.00 | 0.00 | 42 | 1010.2 |
| 20260509021803 | 51 | 45 | 0.0 | 0.0 | 0.00 | 0.00 | 0.00 | 40 | 1010.1 |
| 20260509021301 | 52 | 44 | 0.0 | 0.0 | 0.00 | 0.00 | 0.00 | 39 | 1010.3 |
| 20260509020758 | 52 | 39 | 0.0 | 1.0 | 0.00 | 0.00 | 0.00 | 38 | 1010.1 |
| 20260509020256 | 52 | 41 | 0.0 | 0.0 | 0.00 | 0.00 | 0.00 | 38 | 1010.0 |
| 20260509015753 | 52 | 47 | 0.0 | 0.0 | 0.00 | 0.00 | 0.00 | 38 | 1010.0 |
| 20260509015251 | 52 | 46 | 0.0 | 0.0 | 0.00 | 0.00 | 0.00 | 38 | 1009.9 |
| 20260509014747 | 53 | 47 | 0.0 | 0.0 | 0.00 | 0.00 | 0.00 | 38 | 1010.0 |
| 20260509014245 | 53 | 53 | 0.0 | 0.0 | 0.00 | 0.00 | 0.00 | 37 | 1009.9 |
| 20260509013741 | 53 | 50 | 0.0 | 0.0 | 0.00 | 0.00 | 0.00 | 38 | 1009.8 |
| 20260509013237 | 53 | 48 | 0.0 | 0.0 | 0.00 | 0.00 | 0.00 | 38 | 1010.0 |
| 20260509012734 | 53 | 48 | 0.0 | 0.0 | 0.00 | 0.00 | 0.00 | 38 | 1009.8 |
| 20260509012230 | 53 | 48 | 0.0 | 0.0 | 0.00 | 0.00 | 0.00 | 37 | 1010.0 |
| 20260509011728 | 53 | 53 | 0.0 | 1.0 | 0.00 | 0.00 | 0.00 | 38 | 1009.9 |
| 20260509011225 | 54 | 47 | 0.0 | 0.0 | 0.00 | 0.00 | 0.00 | 38 | 1010.0 |
| 20260509010723 | 54 | 47 | 0.0 | 0.0 | 0.00 | 0.00 | 0.00 | 38 | 1010.0 |
| 20260509010219 | 55 | 47 | 0.0 | 0.0 | 0.00 | 0.00 | 0.00 | 38 | 1009.8 |
| 20260509005717 | 55 | 45 | 0.0 | 0.0 | 0.00 | 0.00 | 0.00 | 37 | 1009.9 |
| 20260509005214 | 56 | 45 | 0.0 | 0.0 | 0.00 | 0.00 | 0.00 | 37 | 1009.9 |
| 20260509004714 | 57 | 44 | 0.0 | 0.0 | 0.00 | 0.00 | 0.00 | 36 | 1009.9 |
| 20260509004212 | 57 | 43 | 0.0 | 0.0 | 0.00 | 0.00 | 0.00 | 34 | 1009.9 |
| 20260509003710 | 58 | 58 | 0.0 | 1.0 | 0.00 | 0.00 | 0.00 | 34 | 1009.8 |
| 20260509003207 | 59 | 46 | 0.0 | 0.0 | 0.00 | 0.00 | 0.00 | 33 | 1010.0 |
| 20260509002704 | 59 | 39 | 0.0 | 0.0 | 0.00 | 0.00 | 0.00 | 32 | 1010.1 |
| 20260509002201 | 59 | 218 | 2.0 | 2.0 | 0.00 | 0.00 | 0.00 | 30 | 1010.0 |
| 20260509001659 | 59 | 4 | 1.0 | 1.0 | 0.00 | 0.00 | 0.00 | 31 | 1010.1 |
| 20260509001155 | 60 | 87 | 1.0 | 1.0 | 0.00 | 0.00 | 0.00 | 31 | 1010.2 |
| 20260509000653 | 60 | 247 | 3.0 | 5.0 | 0.00 | 0.00 | 0.00 | 30 | 1010.2 |
| 20260509000150 | 60 | 206 | 1.0 | 2.0 | 0.00 | 0.00 | 0.00 | 30 | 1010.3 |
| 20260508235647 | 60 | 43 | 0.0 | 0.0 | 0.00 | 0.00 | 0.00 | 30 | 1010.4 |
| 20260508235143 | 60 | 239 | 4.0 | 5.0 | 0.00 | 0.00 | 0.00 | 29 | 1010.3 |
| 20260508234640 | 60 | 217 | 3.0 | 5.0 | 0.00 | 0.00 | 0.00 | 30 | 1010.5 |
| 20260508234136 | 61 | 256 | 2.0 | 3.0 | 0.00 | 0.00 | 0.00 | 29 | 1010.4 |
| 20260508233631 | 60 | 220 | 1.0 | 2.0 | 0.00 | 0.00 | 0.00 | 29 | 1010.6 |
| 20260508233128 | 61 | 269 | 6.0 | 8.0 | 0.00 | 0.00 | 0.00 | 29 | 1010.7 |
| 20260508232625 | 61 | 298 | 3.0 | 5.0 | 0.00 | 0.00 | 0.00 | 29 | 1010.6 |
| 20260508232122 | 61 | 209 | 4.0 | 5.0 | 0.00 | 0.00 | 0.00 | 29 | 1010.6 |
| 20260508231620 | 62 | 235 | 3.0 | 3.0 | 0.00 | 0.00 | 0.00 | 29 | 1010.6 |
| 20260508231116 | 61 | 318 | 3.0 | 3.0 | 0.00 | 0.00 | 0.00 | 28 | 1010.7 |
| 20260508230613 | 62 | 215 | 5.0 | 6.0 | 0.00 | 0.00 | 0.00 | 28 | 1010.6 |
| 20260508230109 | 62 | 339 | 2.0 | 2.0 | 0.00 | 0.00 | 0.00 | 29 | 1010.7 |
| 20260508225607 | 62 | 236 | 2.0 | 2.0 | 0.00 | 0.00 | 0.00 | 28 | 1010.5 |
| 20260508225103 | 62 | 1 | 1.0 | 1.0 | 0.00 | 0.00 | 0.00 | 28 | 1010.6 |
| 20260508224601 | 62 | 2 | 1.0 | 1.0 | 0.00 | 0.00 | 0.00 | 29 | 1010.5 |
| 20260508224058 | 62 | 11 | 2.0 | 2.0 | 0.00 | 0.00 | 0.00 | 29 | 1010.7 |
| 20260508223556 | 62 | 289 | 1.0 | 2.0 | 0.00 | 0.00 | 0.00 | 28 | 1010.6 |
| 20260508223053 | 62 | 347 | 3.0 | 3.0 | 0.00 | 0.00 | 0.00 | 29 | 1010.7 |
| 20260508222550 | 63 | 199 | 4.0 | 6.0 | 0.00 | 0.00 | 0.00 | 27 | 1010.7 |
| 20260508222048 | 62 | 251 | 3.0 | 3.0 | 0.00 | 0.00 | 0.00 | 28 | 1010.8 |
| 20260508221544 | 62 | 292 | 4.0 | 5.0 | 0.00 | 0.00 | 0.00 | 28 | 1010.8 |
| 20260508221039 | 63 | 264 | 2.0 | 2.0 | 0.00 | 0.00 | 0.00 | 28 | 1010.9 |
| 20260508220536 | 63 | 7 | 2.0 | 2.0 | 0.00 | 0.00 | 0.00 | 28 | 1010.8 |
| 20260508220032 | 64 | 308 | 2.0 | 2.0 | 0.00 | 0.00 | 0.00 | 28 | 1010.8 |
| 20260508215530 | 63 | 339 | 2.0 | 2.0 | 0.00 | 0.00 | 0.00 | 28 | 1010.6 |
| 20260508215026 | 64 | 325 | 1.0 | 2.0 | 0.00 | 0.00 | 0.00 | 27 | 1010.7 |
| 20260508214524 | 64 | 223 | 5.0 | 7.0 | 0.00 | 0.00 | 0.00 | 26 | 1010.9 |
| 20260508214020 | 64 | 263 | 2.0 | 2.0 | 0.00 | 0.00 | 0.00 | 27 | 1010.6 |
| 20260508213518 | 64 | 230 | 4.0 | 6.0 | 0.00 | 0.00 | 0.00 | 26 | 1011.0 |
| 20260508213013 | 65 | 291 | 2.0 | 3.0 | 0.00 | 0.00 | 0.00 | 27 | 1010.9 |
| 20260508212510 | 65 | 287 | 1.0 | 1.0 | 0.00 | 0.00 | 0.00 | 26 | 1010.8 |
| 20260508212006 | 65 | 313 | 5.0 | 7.0 | 0.00 | 0.00 | 0.00 | 28 | 1011.0 |
| 20260508211502 | 64 | 351 | 1.0 | 1.0 | 0.00 | 0.00 | 0.00 | 27 | 1011.0 |
| 20260508210958 | 65 | 239 | 4.0 | 6.0 | 0.00 | 0.00 | 0.00 | 27 | 1011.0 |
| 20260508210455 | 65 | 35 | 0.0 | 0.0 | 0.00 | 0.00 | 0.00 | 28 | 1011.1 |
| 20260508205951 | 64 | 263 | 3.0 | 3.0 | 0.00 | 0.00 | 0.00 | 28 | 1011.0 |
| 20260508205449 | 64 | 218 | 3.0 | 3.0 | 0.00 | 0.00 | 0.00 | 28 | 1011.0 |
| 20260508204945 | 64 | 3 | 1.0 | 1.0 | 0.00 | 0.00 | 0.00 | 27 | 1011.2 |
| 20260508204442 | 64 | 332 | 1.0 | 2.0 | 0.00 | 0.00 | 0.00 | 26 | 1011.4 |
| 20260508203937 | 64 | 321 | 2.0 | 2.0 | 0.00 | 0.00 | 0.00 | 26 | 1011.2 |
| 20260508203434 | 64 | 269 | 3.0 | 3.0 | 0.00 | 0.00 | 0.00 | 28 | 1011.3 |
| 20260508202930 | 65 | 271 | 2.0 | 2.0 | 0.00 | 0.00 | 0.00 | 26 | 1011.4 |
| 20260508202428 | 64 | 205 | 3.0 | 3.0 | 0.00 | 0.00 | 0.00 | 26 | 1011.4 |
| 20260508201924 | 64 | 253 | 3.0 | 3.0 | 0.00 | 0.00 | 0.00 | 25 | 1011.6 |
| 20260508201421 | 63 | 304 | 3.0 | 3.0 | 0.00 | 0.00 | 0.00 | 27 | 1011.4 |
| 20260508200918 | 64 | 272 | 3.0 | 5.0 | 0.00 | 0.00 | 0.00 | 27 | 1011.6 |
| 20260508200414 | 66 | 351 | 1.0 | 2.0 | 0.00 | 0.00 | 0.00 | 27 | 1011.7 |
| 20260508195910 | 64 | 46 | 1.0 | 1.0 | 0.00 | 0.00 | 0.00 | 26 | 1011.9 |
| 20260508195407 | 64 | 265 | 4.0 | 6.0 | 0.00 | 0.00 | 0.00 | 26 | 1011.9 |
| 20260508194903 | 64 | 328 | 1.0 | 2.0 | 0.00 | 0.00 | 0.00 | 27 | 1012.2 |
| 20260508194400 | 65 | 17 | 2.0 | 2.0 | 0.00 | 0.00 | 0.00 | 27 | 1012.0 |
| 20260508193857 | 63 | 22 | 0.0 | 1.0 | 0.00 | 0.00 | 0.00 | 26 | 1012.0 |
| 20260508193354 | 64 | 274 | 3.0 | 3.0 | 0.00 | 0.00 | 0.00 | 27 | 1012.1 |
| 20260508192850 | 63 | 334 | 2.0 | 2.0 | 0.00 | 0.00 | 0.00 | 28 | 1012.3 |
| 20260508192347 | 63 | 340 | 1.0 | 2.0 | 0.00 | 0.00 | 0.00 | 27 | 1012.2 |
| 20260508191845 | 63 | 13 | 1.0 | 2.0 | 0.00 | 0.00 | 0.00 | 28 | 1012.2 |
| 20260508191342 | 63 | 220 | 3.0 | 5.0 | 0.00 | 0.00 | 0.00 | 28 | 1012.2 |
| 20260508190839 | 62 | 262 | 2.0 | 2.0 | 0.00 | 0.00 | 0.00 | 28 | 1012.2 |
| 20260508190335 | 64 | 297 | 2.0 | 2.0 | 0.00 | 0.00 | 0.00 | 28 | 1012.2 |
| 20260508185831 | 62 | 24 | 1.0 | 1.0 | 0.00 | 0.00 | 0.00 | 30 | 1012.3 |
| 20260508185329 | 61 | 350 | 1.0 | 1.0 | 0.00 | 0.00 | 0.00 | 30 | 1012.4 |
| 20260508184826 | 61 | 305 | 2.0 | 2.0 | 0.00 | 0.00 | 0.00 | 28 | 1012.4 |
| 20260508184324 | 62 | 237 | 3.0 | 3.0 | 0.00 | 0.00 | 0.00 | 28 | 1012.5 |
| 20260508183820 | 61 | 342 | 1.0 | 2.0 | 0.00 | 0.00 | 0.00 | 30 | 1012.5 |
| 20260508183317 | 61 | 215 | 5.0 | 6.0 | 0.00 | 0.00 | 0.00 | 28 | 1012.7 |
| 20260508182812 | 61 | 253 | 3.0 | 5.0 | 0.00 | 0.00 | 0.00 | 29 | 1012.6 |
| 20260508182310 | 62 | 258 | 3.0 | 3.0 | 0.00 | 0.00 | 0.00 | 29 | 1012.4 |
| 20260508181805 | 62 | 313 | 2.0 | 2.0 | 0.00 | 0.00 | 0.00 | 31 | 1012.7 |
| 20260508181302 | 62 | 0 | 0.0 | 1.0 | 0.00 | 0.00 | 0.00 | 30 | 1012.5 |
| 20260508180754 | 62 | 268 | 3.0 | 3.0 | 0.00 | 0.00 | 0.00 | 29 | 1012.8 |
| 20260508180250 | 62 | 212 | 5.0 | 6.0 | 0.00 | 0.00 | 0.00 | 29 | 1012.7 |
| 20260508175747 | 62 | 67 | 1.0 | 1.0 | 0.00 | 0.00 | 0.00 | 29 | 1012.9 |
| 20260508175243 | 62 | 306 | 3.0 | 6.0 | 0.00 | 0.00 | 0.00 | 30 | 1012.9 |
| 20260508174742 | 62 | 11 | 0.0 | 0.0 | 0.00 | 0.00 | 0.00 | 28 | 1012.7 |
| 20260508174239 | 62 | 35 | 1.0 | 1.0 | 0.00 | 0.00 | 0.00 | 31 | 1013.3 |
| 20260508173735 | 62 | 289 | 3.0 | 5.0 | 0.00 | 0.00 | 0.00 | 30 | 1013.1 |
| 20260508173231 | 62 | 342 | 2.0 | 3.0 | 0.00 | 0.00 | 0.00 | 31 | 1013.1 |
| 20260508172728 | 61 | 242 | 4.0 | 5.0 | 0.00 | 0.00 | 0.00 | 30 | 1013.3 |
| 20260508172225 | 62 | 267 | 5.0 | 7.0 | 0.00 | 0.00 | 0.00 | 30 | 1013.4 |
| 20260508171721 | 62 | 340 | 0.0 | 1.0 | 0.00 | 0.00 | 0.00 | 34 | 1013.3 |
| 20260508171217 | 62 | 217 | 7.0 | 10.0 | 0.00 | 0.00 | 0.00 | 33 | 1013.4 |
| 20260508170715 | 60 | 253 | 2.0 | 2.0 | 0.00 | 0.00 | 0.00 | 36 | 1013.4 |
| 20260508170212 | 61 | 289 | 2.0 | 2.0 | 0.00 | 0.00 | 0.00 | 35 | 1013.5 |
| 20260508165709 | 62 | 246 | 2.0 | 2.0 | 0.00 | 0.00 | 0.00 | 34 | 1013.8 |
| 20260508165206 | 61 | 344 | 3.0 | 3.0 | 0.00 | 0.00 | 0.00 | 35 | 1013.9 |
| 20260508164703 | 61 | 320 | 2.0 | 2.0 | 0.00 | 0.00 | 0.00 | 33 | 1013.9 |
| 20260508164159 | 60 | 278 | 2.0 | 3.0 | 0.00 | 0.00 | 0.00 | 33 | 1014.1 |
| 20260508163657 | 61 | 306 | 4.0 | 6.0 | 0.00 | 0.00 | 0.00 | 34 | 1014.0 |
| 20260508163154 | 60 | 240 | 5.0 | 5.0 | 0.00 | 0.00 | 0.00 | 32 | 1014.1 |
| 20260508162649 | 59 | 33 | 1.0 | 1.0 | 0.00 | 0.00 | 0.00 | 33 | 1014.1 |
| 20260508162148 | 59 | 49 | 1.0 | 1.0 | 0.00 | 0.00 | 0.00 | 34 | 1014.1 |
| 20260508161645 | 60 | 253 | 2.0 | 2.0 | 0.00 | 0.00 | 0.00 | 35 | 1013.9 |
| 20260508161142 | 60 | 315 | 2.0 | 2.0 | 0.00 | 0.00 | 0.00 | 32 | 1014.2 |
| 20260508160640 | 60 | 209 | 3.0 | 5.0 | 0.00 | 0.00 | 0.00 | 31 | 1014.2 |
| 20260508160137 | 59 | 340 | 2.0 | 3.0 | 0.00 | 0.00 | 0.00 | 34 | 1014.2 |
| 20260508155634 | 59 | 55 | 3.0 | 3.0 | 0.00 | 0.00 | 0.00 | 33 | 1014.3 |
| 20260508155131 | 59 | 36 | 1.0 | 1.0 | 0.00 | 0.00 | 0.00 | 33 | 1014.2 |
| 20260508154628 | 59 | 233 | 3.0 | 5.0 | 0.00 | 0.00 | 0.00 | 31 | 1014.5 |
| 20260508154124 | 60 | 247 | 4.0 | 6.0 | 0.00 | 0.00 | 0.00 | 33 | 1014.2 |
| 20260508153621 | 59 | 252 | 2.0 | 2.0 | 0.00 | 0.00 | 0.00 | 38 | 1014.4 |
| 20260508153118 | 58 | 25 | 0.0 | 0.0 | 0.00 | 0.00 | 0.00 | 38 | 1014.1 |
| 20260508152615 | 58 | 240 | 4.0 | 5.0 | 0.00 | 0.00 | 0.00 | 39 | 1014.5 |
| 20260508152110 | 57 | 37 | 0.0 | 1.0 | 0.00 | 0.00 | 0.00 | 38 | 1014.3 |
| 20260508151607 | 58 | 214 | 3.0 | 5.0 | 0.00 | 0.00 | 0.00 | 36 | 1014.3 |
| 20260508151104 | 59 | 230 | 3.0 | 3.0 | 0.00 | 0.00 | 0.00 | 36 | 1014.5 |
| 20260508150601 | 58 | 355 | 1.0 | 1.0 | 0.00 | 0.00 | 0.00 | 40 | 1014.4 |
| 20260508150057 | 57 | 334 | 2.0 | 2.0 | 0.00 | 0.00 | 0.00 | 40 | 1014.6 |
| 20260508145554 | 57 | 237 | 2.0 | 2.0 | 0.00 | 0.00 | 0.00 | 35 | 1014.7 |
| 20260508145050 | 56 | 314 | 1.0 | 2.0 | 0.00 | 0.00 | 0.00 | 40 | 1014.5 |
| 20260508144548 | 57 | 243 | 3.0 | 6.0 | 0.00 | 0.00 | 0.00 | 40 | 1014.7 |
| 20260508144045 | 56 | 217 | 4.0 | 5.0 | 0.00 | 0.00 | 0.00 | 40 | 1014.6 |
| 20260508143543 | 55 | 228 | 2.0 | 2.0 | 0.00 | 0.00 | 0.00 | 45 | 1014.6 |
| 20260508143039 | 55 | 220 | 5.0 | 8.0 | 0.00 | 0.00 | 0.00 | 43 | 1014.6 |
| 20260508142536 | 57 | 163 | 2.0 | 3.0 | 0.00 | 0.00 | 0.00 | 44 | 1014.7 |
| 20260508142032 | 56 | 332 | 2.0 | 2.0 | 0.00 | 0.00 | 0.00 | 46 | 1014.9 |
| 20260508141529 | 55 | 243 | 3.0 | 5.0 | 0.00 | 0.00 | 0.00 | 47 | 1014.7 |
| 20260508141027 | 55 | 230 | 1.0 | 2.0 | 0.00 | 0.00 | 0.00 | 47 | 1014.7 |
| 20260508140524 | 55 | 340 | 1.0 | 1.0 | 0.00 | 0.00 | 0.00 | 47 | 1014.8 |
| 20260508140020 | 56 | 212 | 1.0 | 2.0 | 0.00 | 0.00 | 0.00 | 48 | 1014.8 |
| 20260508135516 | 55 | 39 | 1.0 | 1.0 | 0.00 | 0.00 | 0.00 | 48 | 1014.9 |
| 20260508135012 | 57 | 217 | 3.0 | 5.0 | 0.00 | 0.00 | 0.00 | 50 | 1014.8 |
| 20260508134509 | 54 | 59 | 1.0 | 1.0 | 0.00 | 0.00 | 0.00 | 56 | 1014.8 |
| 20260508134006 | 54 | 51 | 0.0 | 1.0 | 0.00 | 0.00 | 0.00 | 54 | 1014.9 |
| 20260508133503 | 55 | 237 | 1.0 | 1.0 | 0.00 | 0.00 | 0.00 | 54 | 1014.9 |
| 20260508133000 | 57 | 74 | 0.0 | 1.0 | 0.00 | 0.00 | 0.00 | 54 | 1014.8 |
| 20260508132458 | 57 | 78 | 1.0 | 1.0 | 0.00 | 0.00 | 0.00 | 54 | 1014.9 |
| 20260508131954 | 54 | 31 | 0.0 | 0.0 | 0.00 | 0.00 | 0.00 | 59 | 1014.9 |
| 20260508131450 | 51 | 47 | 0.0 | 0.0 | 0.00 | 0.00 | 0.00 | 64 | 1015.0 |